Location: Jackson Park
(37.2862°N, 79.9123°W)
Time: 17:44:28
(UTC+00:00)

Vanguard 1 Rocket - Pass Details

Date: 17 May 2026
Orbit: 656 x 4211 km, 34.3° (Epoch: 9 June)

Event Time Altitude Azimuth Distance (km) Brightness Sun altitude
Rises 17:12:36 0° 190° (S) 3,253 10.5 72.1°
Reaches altitude 10° 17:15:50 10° 166° (SSE) 2,625 10.2 72.2°
Maximum altitude 17:19:16 15° 131° (SE) 2,643 10.2 72.1°
Drops below altitude 10° 17:23:40 10° 99° (E) 3,563 10.6 72.1°
Sets 17:29:27 0° 81° (E) 5,305 11.3 71.9°
